map of KDTO home
Great Circle Mapper logo
KDTO - Airport
Location
City:  Denton, Texas, United States
Name:Denton Municipal Airport
ICAO:KDTO
FAA:DTO

Details
Type:Airport (Airfield)
Use:Public/Civil
Latitude:3312'08"N (33.202099)
Longitude:9711'53"W (-97.197945)
Datum:WGS 1984
Elevation:642 ft (196 m)
Variation:3.8E (WMM2010 magnetic declination)
Runways:1
Longest:7002 × 150 ft (2134 × 45.5 m), paved

Time
Time Zone:UTC-6 (DST-5)
Local Time:

Weather
METAR:KDTO 230253Z 14007KT 10SM CLR 14/13 A2974 RMK AO2 SLP067 60017 T01440128 58041

Related Locations
Nearby:
Farthest:RRG: 10926 mi / 17583 km
Plaine Corail, Rodrigues Island, MU

Find:

   beyond  
but within

Other Information
Maps:
NOTAMs:
Links:
Sources:

  
flag of United States
flag of Texas
  

Airport Diagram

Airport diagram for KDTO

Airport diagram PDF

Sectional Chart

Flight Planning
at skyvector.com

Satellite Image

Google Maps Satellite View

 

Copyright © 2004-2014 Karl L. Swartz. All rights reserved.
The Great Circle Mapper name and logo are trademarks of the Great Circle Mapper.
All other trademarks mentioned herein belong to their respective owners.
Please see credits for attibutions and further copyright information.

  Follow gcmap on Facebook Follow gcmap on Twitter

hCard Microformat

Geo Microformat